Regional Weather Roundup
Issued by NWS Northern Indiana

Home | Current Version | Previous Version | Text Only | Print | Product List | Glossary Off
Versions: 1 2 3 4 5 6 7 8 9 10 11 12 13 14 15 16 17 18 19 20 21 22 23 24 25 26 27 28 29 30 31 32 33 34 35 36 37 38 39 40 41 42 43 44 45 46 47 48 49 50

000
ASUS43 KIWX 070500
RWRIWX

KIWX WEATHER ROUNDUP
NATIONAL WEATHER SERVICE NORTHERN INDIANA
100 AM EDT TUE JUL 07 2015

NOTE: "FAIR" INDICATES FEW OR NO CLOUDS BELOW 12,000 FEET WITH NO
SIGNIFICANT WEATHER AND/OR OBSTRUCTIONS TO VISIBILITY.

* THESE STATIONS ARE NOT UNDER NWS QUALITY CONTROL. THEY ALSO MAY NOT
  REPORT WEATHER SUCH AS PRECIPITATION OR FOG.

INZ001>027-070600-
NORTHERN INDIANA

CITY           SKY/WX    TMP DP  RH WIND       PRES   REMARKS
SOUTH BEND     CLOUDY    79  71  76 S12       29.88F
GOSHEN         CLOUDY    77  70  79 S12G21    29.90F
ANGOLA*          N/A     75  70  83 S7        29.91F
FORT WAYNE     CLOUDY    76  69  79 S9        29.94F
PERU/GRISSOM   CLOUDY    76  71  85 S12       29.91F

$$
INZ028>050-070600-
CENTRAL INDIANA

CITY           SKY/WX    TMP DP  RH WIND       PRES   REMARKS
LAFAYETTE      MOCLDY    75  67  76 S8        29.90F
KOKOMO*        CLOUDY    75  70  83 S12       29.92F
MUNCIE*        CLOUDY    76  69  79 S7        29.96F
INDIANAPOLIS   MOCLDY    77  70  79 S12       29.94F

$$
MIZ043>046-050>051-056>058-064>065-071>073-077>080-070600-
SOUTHWEST LOWER MICHIGAN

CITY           SKY/WX    TMP DP  RH WIND       PRES   REMARKS
BATTLE CREEK   CLOUDY    77  66  68 S13       29.89S
BENTON HARBOR  CLOUDY    78  70  76 SW15      29.86R
COLDWATER*     CLOUDY    75  65  70 SW8       29.90F
HILLSDALE*     CLOUDY    74  69  82 S6        29.93S
HOLLAND        CLOUDY    77  68  73 SW18G26   29.86R
GRAND RAPIDS   CLOUDY    78  68  71 S13       29.85S
KALAMAZOO      CLOUDY    77  68  73 S9        29.88S
STURGIS*       CLOUDY    75  68  78 S9        29.90S
THREE RIVERS*  FAIR      75  67  77 S7        29.89F

$$
OHZ001>008-015>018-024>025-070600-
NORTHWEST OHIO

CITY           SKY/WX    TMP DP  RH WIND       PRES   REMARKS
DEFIANCE       CLOUDY    76  67  73 S8        29.93F
FINDLAY        MOCLDY    71  65  81 S10       29.95F
TOLEDO EXPRESS CLOUDY    72  65  78 S6        29.93F
TOLEDO METCALF CLOUDY    74  63  68 S9        29.94F
LIMA           CLOUDY    72  66  81 S7        29.97F

$$
AND FOR LAKE MICHIGAN COASTAL AND OPEN LAKE BUOY OBSERVATIONS

STATION/POSITION TEMP    WIND        PRES    VSBY  WAVE
                 AIR SEA DIR/SP/G                  HT/PER
                 (F)     (DEG/KT/KT) (MB)    (MI)  (FT/S)
CALUMET HARBOR    73     190/  5/  7   N/A
MICHIGAN CITY     76     160/ 12/ 15   N/A
BURNS HARBOR      74     240/ 10/ 15 1011.9F
SAINT JOSEPH      80     170/ 11/ 17 1010.8F
4 MI NW BRIDGMAN  74 67  210/ 16/ 19   N/A           2/ 3
MICHIGAN CITY     75 68  220/ 12/ 16   N/A           1

$$
&&


USA.gov is the U.S. government's official web portal to all federal, state and local government web resources and services.